Location: Mascot Post Office (historical)
(40.2645°N, 99.5462°W)
Time: 17:28:44
(UTC+00:00)

CZ-2C R/B - Pass Details

Date: 14 July 2020
Orbit: 503 x 566 km, 97.7° (Epoch: 04 August)

Event Time Altitude Azimuth Distance (km) Brightness Sun altitude
Rises 10:09:09 0° 10° (N) 2,774 7.3 -11.9°
Reaches altitude 10° 10:11:19 10° 9° (N) 1,872 6.3 -11.6°
Maximum altitude 10:15:22 77° 284° (WNW) 584 2.8 -11.0°
Enters shadow 10:19:17 11° 199° (SSW) 1,811 4.9 -10.5°
